TimeMST,TemperatureF,Dew PointF,Humidity,Sea Level PressureIn,VisibilityMPH,Wind Direction,Wind SpeedMPH,Gust SpeedMPH,PrecipitationIn,Events,Conditions,WindDirDegrees,DateUTC
12:53 AM,43.0,30.9,62,29.89,10.0,NNW,23.0,31.1,N/A,,Mostly Cloudy,340,2012-12-06 07:53:00
1:08 AM,42.8,30.2,61,29.97,10.0,North,18.4,26.5,N/A,,Overcast,360,2012-12-06 08:08:00
1:53 AM,39.0,28.9,67,29.93,10.0,NNE,11.5,-,N/A,,Mostly Cloudy,20,2012-12-06 08:53:00
2:53 AM,37.9,24.1,57,29.94,10.0,North,6.9,-,N/A,,Mostly Cloudy,350,2012-12-06 09:53:00
3:53 AM,37.0,25.0,62,29.97,10.0,North,6.9,-,N/A,,Overcast,350,2012-12-06 10:53:00
4:53 AM,35.1,21.0,57,29.99,10.0,NE,8.1,-,N/A,,Overcast,50,2012-12-06 11:53:00
5:53 AM,35.1,21.0,57,30.00,10.0,NE,3.5,-,N/A,,Overcast,50,2012-12-06 12:53:00
6:53 AM,33.1,21.0,61,30.03,10.0,East,4.6,-,N/A,,Overcast,80,2012-12-06 13:53:00
7:53 AM,33.1,21.0,61,30.03,10.0,East,4.6,-,N/A,,Overcast,100,2012-12-06 14:53:00
8:53 AM,32.0,19.0,59,30.04,10.0,ESE,8.1,-,N/A,,Mostly Cloudy,120,2012-12-06 15:53:00
9:53 AM,36.0,19.0,50,30.01,10.0,SE,9.2,-,N/A,,Clear,130,2012-12-06 16:53:00
10:53 AM,39.0,19.0,45,29.96,10.0,SE,12.7,-,N/A,,Clear,140,2012-12-06 17:53:00
11:53 AM,39.9,25.0,55,29.93,10.0,SE,12.7,-,N/A,,Clear,140,2012-12-06 18:53:00
12:53 PM,41.0,28.0,60,29.91,10.0,SE,9.2,-,N/A,,Clear,130,2012-12-06 19:53:00
1:53 PM,43.0,28.0,56,29.88,10.0,SE,10.4,-,N/A,,Clear,130,2012-12-06 20:53:00
2:53 PM,44.1,26.1,49,29.87,10.0,SSE,6.9,-,N/A,,Clear,150,2012-12-06 21:53:00
3:53 PM,41.0,27.0,57,29.87,10.0,SE,9.2,-,N/A,,Clear,130,2012-12-06 22:53:00
4:53 PM,37.9,26.1,62,29.86,10.0,SE,10.4,-,N/A,,Clear,130,2012-12-06 23:53:00
5:53 PM,36.0,25.0,64,29.86,10.0,SSE,6.9,-,N/A,,Clear,150,2012-12-07 00:53:00
6:53 PM,34.0,25.0,70,29.88,10.0,SE,6.9,-,N/A,,Clear,130,2012-12-07 01:53:00
7:53 PM,32.0,24.1,73,29.87,10.0,SE,6.9,-,N/A,,Clear,140,2012-12-07 02:53:00
8:53 PM,28.9,23.0,78,29.87,10.0,Calm,Calm,-,N/A,,Clear,0,2012-12-07 03:53:00
9:53 PM,30.0,24.1,79,29.85,10.0,Calm,Calm,-,N/A,,Clear,0,2012-12-07 04:53:00
10:53 PM,28.0,21.0,75,29.82,10.0,Calm,Calm,-,N/A,,Clear,0,2012-12-07 05:53:00
11:53 PM,25.0,19.0,78,29.81,10.0,East,3.5,-,N/A,,Clear,100,2012-12-07 06:53:00